Weather History for Keahole Point, HI

Change the Weather History Date:

Saturday, June 30, 2012

  Actual Average Record
Temperature  
Mean Temperature 77 °F -  
Max Temperature 82 °F 82 °F 92 °F (1986)
Min Temperature 72 °F 72 °F 69 °F (1984)
Cooling Degree Days 12    
Growing Degree Days 27 (Base 50)    
Moisture  
Dew Point 65 °F    
Average Humidity 65    
Maximum Humidity 78    
Minimum Humidity 54    
Precipitation  
Precipitation 0.00 in - - ()
Sea Level Pressure  
Sea Level Pressure 30.00 in    
Wind  
Wind Speed 5 mph (South)    
Max Wind Speed 14 mph    
Max Gust Speed 16 mph    
Visibility 10 miles    
Events      
Averages and records for this station are not official NWS values.
T = Trace of Precipitation, MM = Missing Value Source: NWS Daily Summary

Daily Weather History Graph

Daily Weather History Graph

Search for Another Location

Airport:

Trip Planner

Search our weather history database for the weather conditions in past years. The results will help you decide how hot, cold, wet, or windy it might be!

Date:

Astronomy

Jun. 30, 2012 Rise Set
Actual Time 5:48 AM HST 7:07 PM HST
Civil Twilight 5:24 AM HST 7:31 PM HST
Nautical Twilight 4:55 AM HST 8:00 PM HST
Astronomical Twilight 4:25 AM HST 8:30 PM HST
Moon 4:20 PM HST (6/30) 2:45 AM HST (6/30)
Length of Visible Light 14h 07m
Length of Day
13h 18m
Waxing Gibbous, 89% of the Moon is Illuminated
Jun 30
Waxing Gibbous
Jul 3
Full
Jul 10
Last Quarter
Jul 18
New
Jul 25
First Quarter

Hourly Weather History & Observations

Time (HST) Temp. Heat Index Dew Point Humidity Pressure Visibility Wind Dir Wind Speed Gust Speed Precip Events Conditions
1:39 AM 73.4 °F - 66.2 °F 78% 30.02 in 10.0 mi Calm Calm - N/A   Mostly Cloudy
1:53 AM 75.0 °F - 66.0 °F 73% 30.01 in 10.0 mi Calm Calm - N/A   Overcast
2:12 AM 73.4 °F - 66.2 °F 78% 30.00 in 10.0 mi East 3.5 mph - N/A   Scattered Clouds
2:53 AM 72.0 °F - 64.0 °F 76% 30.00 in 10.0 mi Calm Calm - N/A   Clear
3:53 AM 73.0 °F - 63.0 °F 71% 30.00 in 10.0 mi Calm Calm - N/A   Clear
4:53 AM 72.0 °F - 63.0 °F 73% 30.00 in 10.0 mi East 5.8 mph - N/A   Partly Cloudy
5:13 AM 73.4 °F - 64.4 °F 73% 30.00 in 10.0 mi East 4.6 mph - N/A   Mostly Cloudy
5:53 AM 73.0 °F - 64.0 °F 73% 30.01 in 10.0 mi ESE 5.8 mph - N/A   Scattered Clouds
6:15 AM 73.4 °F - 64.4 °F 73% 30.01 in 10.0 mi ESE 4.6 mph - N/A   Mostly Cloudy
6:53 AM 73.9 °F - 63.0 °F 68% 30.02 in 10.0 mi ESE 5.8 mph - N/A   Scattered Clouds
7:53 AM 78.1 °F - 66.0 °F 66% 30.04 in 10.0 mi SE 5.8 mph - N/A   Partly Cloudy
8:53 AM 80.1 °F 82.1 °F 66.0 °F 62% 30.03 in 10.0 mi SSE 11.5 mph 16.1 mph N/A   Mostly Cloudy
9:04 AM 78.8 °F - 66.2 °F 65% 30.03 in 10.0 mi South 9.2 mph - N/A   Scattered Clouds
9:53 AM 81.0 °F 83.0 °F 66.0 °F 60% 30.03 in 10.0 mi South 10.4 mph - N/A   Scattered Clouds
10:53 AM 82.0 °F 84.5 °F 66.9 °F 60% 30.02 in 10.0 mi South 13.8 mph - N/A   Clear
11:53 AM 82.0 °F 84.1 °F 66.0 °F 58% 30.01 in 10.0 mi South 12.7 mph - N/A   Clear
12:53 PM 82.0 °F 83.8 °F 64.9 °F 56% 30.00 in 10.0 mi SW 12.7 mph - N/A   Clear
1:53 PM 82.0 °F 83.8 °F 64.9 °F 56% 29.99 in 10.0 mi SSW 12.7 mph - N/A   Overcast
2:53 PM 82.0 °F 84.5 °F 66.9 °F 60% 29.97 in 10.0 mi SSW 11.5 mph - N/A   Partly Cloudy
3:53 PM 81.0 °F 83.0 °F 66.0 °F 60% 29.96 in 10.0 mi SSW 12.7 mph - N/A   Mostly Cloudy
4:53 PM 80.1 °F 82.3 °F 66.9 °F 64% 29.96 in 10.0 mi SSW 12.7 mph - N/A   Overcast
5:53 PM 79.0 °F - 66.0 °F 64% 29.96 in 10.0 mi SSW 10.4 mph - N/A   Mostly Cloudy
6:53 PM 78.1 °F - 66.9 °F 68% 29.97 in 10.0 mi SSW 10.4 mph - N/A   Overcast
7:53 PM 78.1 °F - 66.9 °F 68% 29.99 in 10.0 mi WSW 10.4 mph - N/A   Overcast
8:26 PM 78.8 °F - 64.4 °F 61% 29.99 in 10.0 mi West 5.8 mph - N/A   Overcast
8:39 PM 78.8 °F - 64.4 °F 61% 29.99 in 10.0 mi West 4.6 mph - N/A   Overcast
8:53 PM 78.1 °F - 60.1 °F 54% 29.99 in 10.0 mi Variable 4.6 mph - N/A   Mostly Cloudy
9:53 PM 77.0 °F - 60.1 °F 56% 30.00 in 10.0 mi NE 13.8 mph - N/A   Scattered Clouds
10:53 PM 77.0 °F - 60.1 °F 56% 30.01 in 10.0 mi ENE 8.1 mph - N/A   Mostly Cloudy
11:53 PM 75.9 °F - 61.0 °F 60% 29.99 in 10.0 mi Calm Calm - N/A   Clear